| time (UTC) | temp F | wind direction | speed knots | gust knots | rain 1hr in | rain 24hr in | rain mn in | humidity % | barometer mb |
| 20260502231517 | 54 | 113 | 1.7 | 3.5 | 0.00 | 0.00 | 0.00 | 1 | 1013.0 |
| 20260502230517 | 54 | 113 | 3.5 | 6.1 | 0.00 | 0.00 | 0.00 | 1 | 1013.1 |
| 20260502225517 | 54 | 90 | 4.3 | 7.0 | 0.00 | 0.00 | 0.00 | 1 | 1013.1 |
| 20260502224517 | 54 | 68 | 3.5 | 4.3 | 0.00 | 0.00 | 0.00 | 1 | 1012.8 |
| 20260502223517 | 54 | 68 | 3.5 | 4.3 | 0.00 | 0.00 | 0.00 | 1 | 1012.9 |
| 20260502222517 | 54 | 90 | 3.5 | 4.3 | 0.00 | 0.00 | 0.00 | 1 | 1013.0 |
| 20260502221517 | 54 | 68 | 3.5 | 4.3 | 0.00 | 0.00 | 0.00 | 1 | 1012.9 |
| 20260502220527 | 54 | 45 | 4.3 | 5.2 | 0.00 | 0.00 | 0.00 | 1 | 1012.8 |
| 20260502220017 | 54 | 45 | 3.5 | 5.2 | 0.00 | 0.00 | 0.00 | 1 | 1012.9 |
| 20260502215036 | 54 | 45 | 2.6 | 3.5 | 0.00 | 0.00 | 0.00 | 1 | 1013.0 |
| 20260502214016 | 55 | 90 | 2.6 | 3.5 | 0.00 | 0.00 | 0.00 | 1 | 1013.1 |
| 20260502213018 | 55 | 68 | 0.9 | 3.5 | 0.00 | 0.00 | 0.00 | 1 | 1013.2 |
| 20260502212016 | 55 | 68 | 1.7 | 2.6 | 0.00 | 0.00 | 0.00 | 1 | 1013.4 |
| 20260502211016 | 55 | 90 | 1.7 | 3.5 | 0.00 | 0.00 | 0.00 | 1 | 1013.5 |
| 20260502210019 | 55 | 45 | 1.7 | 2.6 | 0.00 | 0.00 | 0.00 | 1 | 1013.4 |
| 20260502205016 | 55 | 0.0 | 0.0 | 0.00 | 0.00 | 0.00 | 1 | 1013.6 | |
| 20260502204016 | 55 | 90 | 0.9 | 1.7 | 0.00 | 0.00 | 0.00 | 1 | 1013.7 |
| 20260502203016 | 56 | 0 | 0.9 | 1.7 | 0.00 | 0.00 | 0.00 | 1 | 1013.8 |
| 20260502202018 | 56 | 0 | 2.6 | 4.3 | 0.00 | 0.00 | 0.00 | 1 | 1013.8 |
| 20260502201016 | 56 | 338 | 2.6 | 4.3 | 0.00 | 0.00 | 0.00 | 1 | 1013.9 |
| 20260502200037 | 56 | 338 | 2.6 | 4.3 | 0.00 | 0.00 | 0.00 | 1 | 1014.0 |
| 20260502195018 | 56 | 338 | 2.6 | 3.5 | 0.00 | 0.00 | 0.00 | 1 | 1013.9 |
| 20260502194017 | 57 | 0 | 2.6 | 3.5 | 0.00 | 0.00 | 0.00 | 1 | 1014.0 |
| 20260502193018 | 58 | 338 | 2.6 | 5.2 | 0.00 | 0.00 | 0.00 | 1 | 1013.9 |
| 20260502192016 | 58 | 0 | 2.6 | 3.5 | 0.00 | 0.00 | 0.00 | 1 | 1013.9 |
| 20260502191016 | 59 | 338 | 2.6 | 4.3 | 0.00 | 0.00 | 0.00 | 1 | 1013.9 |
| 20260502190016 | 60 | 338 | 2.6 | 5.2 | 0.00 | 0.00 | 0.00 | 1 | 1013.9 |
| 20260502185016 | 60 | 315 | 2.6 | 5.2 | 0.00 | 0.00 | 0.00 | 1 | 1013.9 |
| 20260502184016 | 61 | 315 | 4.3 | 7.0 | 0.00 | 0.00 | 0.00 | 6 | 1013.9 |
| 20260502183018 | 62 | 315 | 5.2 | 8.7 | 0.00 | 0.00 | 0.00 | 26 | 1014.0 |
| 20260502182028 | 63 | 315 | 4.3 | 7.8 | 0.00 | 0.00 | 0.00 | 48 | 1013.9 |
| 20260502181016 | 63 | 315 | 5.2 | 7.0 | 0.00 | 0.00 | 0.00 | 56 | 1014.0 |
| 20260502164016 | 66 | 293 | 4.3 | 7.0 | 0.00 | 0.00 | 0.00 | 58 | 1014.6 |
| 20260502163016 | 66 | 293 | 4.3 | 7.0 | 0.00 | 0.00 | 0.00 | 61 | 1014.7 |
| 20260502162036 | 66 | 315 | 4.3 | 7.8 | 0.00 | 0.00 | 0.00 | 61 | 1014.7 |
| 20260502161017 | 67 | 315 | 6.1 | 10.4 | 0.00 | 0.00 | 0.00 | 60 | 1014.8 |
| 20260502152016 | 68 | 293 | 5.2 | 9.6 | 0.00 | 0.00 | 0.00 | 53 | 1015.0 |
| 20260502151016 | 68 | 293 | 5.2 | 9.6 | 0.00 | 0.00 | 0.00 | 53 | 1015.2 |
| 20260502123018 | 70 | 248 | 7.0 | 11.3 | 0.00 | 0.00 | 0.00 | 59 | 1016.0 |
| 20260502122016 | 69 | 248 | 7.0 | 12.2 | 0.00 | 0.00 | 0.00 | 58 | 1016.1 |
| 20260502121016 | 70 | 225 | 6.1 | 11.3 | 0.00 | 0.00 | 0.00 | 59 | 1016.2 |
| 20260502115016 | 69 | 248 | 4.3 | 9.6 | 0.00 | 0.00 | 0.00 | 58 | 1016.3 |
| 20260502114016 | 69 | 248 | 5.2 | 8.7 | 0.00 | 0.00 | 0.00 | 59 | 1016.4 |
| 20260502113017 | 68 | 248 | 5.2 | 10.4 | 0.00 | 0.00 | 0.00 | 60 | 1016.6 |
| 20260502112016 | 68 | 248 | 3.5 | 7.8 | 0.00 | 0.00 | 0.00 | 60 | 1016.6 |
| 20260502111037 | 67 | 248 | 3.5 | 7.0 | 0.00 | 0.00 | 0.00 | 58 | 1016.7 |
| 20260502110016 | 65 | 248 | 2.6 | 4.3 | 0.00 | 0.00 | 0.00 | 59 | 1016.6 |
| 20260502105016 | 64 | 270 | 2.6 | 5.2 | 0.00 | 0.00 | 0.00 | 58 | 1016.6 |
| 20260502104016 | 63 | 270 | 2.6 | 4.3 | 0.00 | 0.00 | 0.00 | 57 | 1016.5 |
| 20260502103016 | 63 | 248 | 2.6 | 5.2 | 0.00 | 0.00 | 0.00 | 58 | 1016.4 |
| 20260502102057 | 62 | 225 | 2.6 | 5.2 | 0.00 | 0.00 | 0.00 | 58 | 1016.3 |
| 20260502101017 | 61 | 225 | 1.7 | 5.2 | 0.00 | 0.00 | 0.00 | 58 | 1016.6 |
| 20260502091016 | 62 | 225 | 5.2 | 11.3 | 0.00 | 0.00 | 0.00 | 61 | 1017.1 |
| 20260502071039 | 60 | 225 | 5.2 | 7.8 | 0.00 | 0.00 | 0.00 | 62 | 1016.9 |
| 20260502070017 | 60 | 225 | 5.2 | 7.8 | 0.00 | 0.00 | 0.00 | 62 | 1016.9 |
| 20260502065017 | 59 | 225 | 4.3 | 7.0 | 0.00 | 0.00 | 0.00 | 62 | 1016.8 |
| 20260502064019 | 58 | 203 | 4.3 | 7.0 | 0.00 | 0.00 | 0.00 | 61 | 1016.9 |
| 20260502063017 | 58 | 180 | 5.2 | 7.0 | 0.00 | 0.00 | 0.00 | 60 | 1016.8 |
| 20260502062017 | 57 | 158 | 3.5 | 5.2 | 0.00 | 0.00 | 0.00 | 61 | 1016.7 |
| 20260502061027 | 57 | 158 | 3.5 | 6.1 | 0.00 | 0.00 | 0.00 | 60 | 1016.8 |
| 20260502060017 | 56 | 180 | 2.6 | 4.3 | 0.00 | 0.00 | 0.00 | 58 | 1016.8 |
| 20260502055017 | 55 | 180 | 2.6 | 4.3 | 0.00 | 0.00 | 0.00 | 54 | 1016.9 |
| 20260502054029 | 54 | 158 | 2.6 | 4.3 | 0.00 | 0.00 | 0.00 | 55 | 1016.9 |
| 20260502053017 | 53 | 225 | 2.6 | 4.3 | 0.00 | 0.00 | 0.00 | 56 | 1017.1 |
| 20260502052017 | 52 | 180 | 2.6 | 3.5 | 0.00 | 0.00 | 0.00 | 56 | 1016.9 |
| 20260502051019 | 52 | 180 | 1.7 | 3.5 | 0.00 | 0.00 | 0.00 | 53 | 1017.0 |
| 20260502050037 | 51 | 180 | 1.7 | 2.6 | 0.00 | 0.00 | 0.00 | 56 | 1016.9 |
| 20260502045017 | 51 | 180 | 1.7 | 2.6 | 0.00 | 0.00 | 0.00 | 57 | 1017.0 |
| 20260502044017 | 51 | 203 | 2.6 | 3.5 | 0.00 | 0.00 | 0.00 | 56 | 1016.9 |
| 20260502043017 | 50 | 203 | 2.6 | 4.3 | 0.00 | 0.00 | 0.00 | 55 | 1016.9 |
| 20260502042017 | 50 | 180 | 3.5 | 4.3 | 0.00 | 0.00 | 0.00 | 57 | 1016.9 |
| 20260502041019 | 50 | 180 | 2.6 | 3.5 | 0.00 | 0.00 | 0.00 | 57 | 1017.0 |
| 20260502040017 | 51 | 203 | 2.6 | 4.3 | 0.00 | 0.00 | 0.00 | 56 | 1017.1 |
| 20260502035019 | 51 | 203 | 3.5 | 4.3 | 0.00 | 0.00 | 0.00 | 57 | 1017.1 |
| 20260502034017 | 51 | 203 | 2.6 | 3.5 | 0.00 | 0.00 | 0.00 | 54 | 1017.3 |
| 20260502033017 | 51 | 180 | 2.6 | 3.5 | 0.00 | 0.00 | 0.00 | 54 | 1017.3 |
| 20260502032017 | 51 | 180 | 1.7 | 2.6 | 0.00 | 0.00 | 0.00 | 52 | 1017.3 |
| 20260502031057 | 51 | 180 | 2.6 | 2.6 | 0.00 | 0.00 | 0.00 | 51 | 1017.4 |
| 20260502030017 | 51 | 180 | 1.7 | 2.6 | 0.00 | 0.00 | 0.00 | 47 | 1017.4 |
| 20260502025017 | 51 | 180 | 1.7 | 2.6 | 0.00 | 0.00 | 0.00 | 46 | 1017.5 |
| 20260502024019 | 51 | 0.0 | 0.0 | 0.00 | 0.00 | 0.00 | 43 | 1017.6 | |
| 20260502023017 | 51 | 135 | 0.9 | 1.7 | 0.00 | 0.00 | 0.00 | 46 | 1017.6 |
| 20260502022019 | 52 | 135 | 1.7 | 2.6 | 0.00 | 0.00 | 0.00 | 48 | 1017.7 |
| 20260502021020 | 52 | 0.0 | 0.0 | 0.00 | 0.00 | 0.00 | 50 | 1017.7 | |
| 20260502020017 | 52 | 135 | 0.9 | 1.7 | 0.00 | 0.00 | 0.00 | 53 | 1017.9 |
| 20260502015017 | 52 | 135 | 1.7 | 1.7 | 0.00 | 0.00 | 0.00 | 57 | 1017.9 |
| 20260502014019 | 52 | 135 | 1.7 | 2.6 | 0.00 | 0.00 | 0.00 | 58 | 1017.9 |
| 20260502013017 | 53 | 135 | 0.9 | 1.7 | 0.00 | 0.00 | 0.00 | 54 | 1018.0 |
| 20260502012018 | 53 | 135 | 0.9 | 1.7 | 0.00 | 0.00 | 0.00 | 53 | 1018.2 |
| 20260502011037 | 53 | 0.0 | 1.7 | 0.00 | 0.00 | 0.00 | 50 | 1018.3 | |
| 20260502010017 | 53 | 135 | 0.9 | 1.7 | 0.00 | 0.00 | 0.00 | 54 | 1018.4 |
| 20260502005017 | 54 | 0.0 | 0.0 | 0.00 | 0.00 | 0.00 | 55 | 1018.5 | |
| 20260502004037 | 54 | 0.0 | 0.0 | 0.00 | 0.00 | 0.00 | 49 | 1018.7 | |
| 20260502003017 | 54 | 0.0 | 0.0 | 0.00 | 0.00 | 0.00 | 49 | 1018.8 | |
| 20260502002017 | 54 | 0.0 | 0.0 | 0.00 | 0.00 | 0.00 | 51 | 1018.9 | |
| 20260502001017 | 54 | 0.0 | 0.0 | 0.00 | 0.00 | 0.00 | 54 | 1018.9 | |
| 20260502000017 | 55 | 0.0 | 0.0 | 0.00 | 0.00 | 0.00 | 55 | 1019.0 | |
| 20260501235040 | 54 | 0.0 | 0.0 | 0.00 | 0.00 | 0.00 | 53 | 1019.1 | |
| 20260501234022 | 54 | 0.0 | 0.0 | 0.00 | 0.00 | 0.00 | 51 | 1019.1 | |
| 20260501233017 | 54 | 0.0 | 0.0 | 0.00 | 0.00 | 0.00 | 52 | 1019.3 |